This demonstration page uses our WeatherBlox Daily Observations layout. Learn more.

Left ArrowRight Arrow

41.55636, -103.73856

Hourly Observations for June 21, 2021

Temp ( °F °C ) Dew Point ( °F °C ) Humidity (%) Winds ( mph kmh ) Pressure ( in mb ) Visibility ( mi km ) Precip ( " mm )
12:58 am 00:58 Cloudy with Rain 54 12.4 52 11.1 92 92 N N/A 30.10 1019 9 14 0.12 3.05
1:58 am 01:58 Mostly Cloudy with Light Rain 53 11.8 50 9.9 88 88 NW 3 6 30.09 1019 10 16 0.04 1.02
2:58 am 02:58 Mostly Cloudy 54 12 51 10.4 90 90 NNW 5 7 30.09 1019 10 16 N/A
3:58 am 03:58 Mostly Clear 52 10.9 50 9.9 94 94 SW 3 6 30.11 1020 10 16 N/A
4:58 am 04:58 Clear 50 9.9 47 8.6 92 92 SW 5 7 30.13 1020 10 16 N/A
5:58 am 05:58 Sunny 50 9.8 47 8.4 91 91 SW 5 7 30.14 1021 10 16 N/A
6:58 am 06:58 Sunny 53 11.7 49 9.6 87 87 W 5 7 30.14 1021 10 16 N/A
7:58 am 07:58 Mostly Sunny 57 13.8 51 10.3 80 80 NW 9 15 30.16 1021 10 16 N/A
8:58 am 08:58 Sunny 60 15.4 49 9.6 69 69 NW 9 15 30.18 1022 10 16 N/A
9:58 am 09:58 Partly Cloudy 62 16.7 44 6.9 53 53 NW 8 13 30.17 1022 10 16 N/A
10:58 am 10:58 Partly Cloudy 64 17.5 44 6.5 49 49 WNW 9 15 30.17 1022 10 16 N/A
11:58 am 11:58 Sunny 66 19 44 6.4 44 44 NNW 6 9 30.15 1021 10 16 N/A
12:58 pm 12:58 Mostly Cloudy 67 19.6 43 6.1 41 41 WNW 8 13 30.12 1020 10 16 N/A
1:58 pm 13:58 Partly Cloudy 69 20.8 42 5.8 38 38 NW 7 11 30.10 1019 10 16 N/A
2:58 pm 14:58 Mostly Sunny 71 21.9 40 4.5 32 32 NW 6 9 30.07 1018 10 16 N/A
3:58 pm 15:58 Mostly Sunny 73 22.5 38 3.5 29 29 N N/A 30.04 1017 10 16 N/A
4:58 pm 16:58 Mostly Sunny 73 22.7 38 3.4 28 28 NW 6 9 30.02 1017 10 16 N/A
5:58 pm 17:58 Sunny 73 22.7 38 3.6 29 29 N N/A 30.00 1016 10 16 N/A
6:58 pm 18:58 Sunny 74 23.2 40 4.3 29 29 N N/A 29.97 1015 10 16 N/A
7:58 pm 19:58 Sunny 67 19.6 44 6.5 43 43 SSE 7 11 29.98 1015 10 16 N/A
8:58 pm 20:58 Clear 65 18.5 45 7.1 48 48 SSE 12 19 29.98 1015 10 16 N/A
9:58 pm 21:58 Clear 62 16.6 48 9.1 61 61 S 13 20 29.98 1015 10 16 N/A
10:58 pm 22:58 Clear 61 16.2 49 9.5 65 65 S 15 24 29.95 1014 10 16 N/A
11:58 pm 23:58 Partly Cloudy 65 18.1 46 8 52 52 SSW 23 37 29.89 1012 10 16 N/A

Powered by AerisWeather